Time,TemperatureF,DewpointF,PressureIn,WindDirection,WindDirectionDegrees,WindSpeedMPH,WindSpeedGustMPH,Humidity,HourlyPrecipIn,Conditions,Clouds,dailyrainin,SoftwareType,DateUTC
2013-09-21 00:00:00,62.5,61.0,29.82,South,181,8.0,16.0,96,0.00,,,0.01,weatherlink.com 1.10,2013-09-21 07:00:00,
2013-09-21 00:15:00,62.1,61.0,29.82,South,180,11.0,17.0,97,0.01,,,0.02,weatherlink.com 1.10,2013-09-21 07:15:00,
2013-09-21 00:30:00,61.8,61.0,29.82,South,180,14.0,16.0,97,0.01,,,0.02,weatherlink.com 1.10,2013-09-21 07:30:00,
2013-09-21 00:45:00,61.6,61.0,29.82,South,180,12.0,15.0,97,0.03,,,0.04,weatherlink.com 1.10,2013-09-21 07:45:00,
2013-09-21 01:01:00,61.4,61.0,29.82,South,180,8.0,14.0,97,0.06,,,0.02,weatherlink.com 1.10,2013-09-21 08:01:00,
2013-09-21 01:16:00,60.8,60.0,29.82,South,180,12.0,18.0,97,0.07,,,0.04,weatherlink.com 1.10,2013-09-21 08:16:00,
2013-09-21 01:31:00,60.5,60.0,29.82,South,179,10.0,15.0,97,0.09,,,0.06,weatherlink.com 1.10,2013-09-21 08:31:00,
2013-09-21 01:46:00,60.3,60.0,29.82,South,180,4.0,13.0,97,0.09,,,0.08,weatherlink.com 1.10,2013-09-21 08:46:00,
2013-09-21 02:01:00,60.0,59.0,29.82,South,181,5.0,13.0,97,0.07,,,0.09,weatherlink.com 1.10,2013-09-21 09:01:00,
2013-09-21 02:16:00,60.0,59.0,29.82,South,179,0.0,2.0,97,0.05,,,0.09,weatherlink.com 1.10,2013-09-21 09:16:00,
2013-09-21 02:31:00,60.5,60.0,29.82,South,180,4.0,6.0,98,0.02,,,0.09,weatherlink.com 1.10,2013-09-21 09:31:00,
2013-09-21 02:46:00,60.5,60.0,29.82,South,180,4.0,11.0,97,0.01,,,0.09,weatherlink.com 1.10,2013-09-21 09:46:00,
2013-09-21 03:01:00,60.3,60.0,29.82,South,181,3.0,9.0,97,0.00,,,0.09,weatherlink.com 1.10,2013-09-21 10:01:00,
2013-09-21 03:16:00,60.3,60.0,29.82,South,180,4.0,8.0,98,0.00,,,0.09,weatherlink.com 1.10,2013-09-21 10:16:00,
2013-09-21 03:31:00,60.2,60.0,29.82,South,180,7.0,10.0,98,0.00,,,0.09,weatherlink.com 1.10,2013-09-21 10:31:00,
2013-09-21 03:46:00,59.8,59.0,29.81,South,181,2.0,8.0,98,0.00,,,0.09,weatherlink.com 1.10,2013-09-21 10:46:00,
2013-09-21 04:01:00,59.7,59.0,29.82,South,180,5.0,9.0,98,0.00,,,0.09,weatherlink.com 1.10,2013-09-21 11:01:00,
2013-09-21 04:16:00,59.9,59.0,29.82,South,181,6.0,8.0,98,0.00,,,0.09,weatherlink.com 1.10,2013-09-21 11:16:00,
2013-09-21 04:31:00,59.6,59.0,29.81,South,179,5.0,7.0,98,0.00,,,0.09,weatherlink.com 1.10,2013-09-21 11:31:00,
2013-09-21 04:46:00,59.5,59.0,29.81,South,181,4.0,6.0,98,0.00,,,0.09,weatherlink.com 1.10,2013-09-21 11:46:00,
2013-09-21 05:01:00,59.5,59.0,29.81,South,181,3.0,6.0,98,0.00,,,0.09,weatherlink.com 1.10,2013-09-21 12:01:00,
2013-09-21 05:16:00,59.5,59.0,29.81,South,180,5.0,7.0,98,0.00,,,0.09,weatherlink.com 1.10,2013-09-21 12:16:00,
2013-09-21 05:31:00,59.6,59.0,29.81,South,179,5.0,6.0,98,0.00,,,0.09,weatherlink.com 1.10,2013-09-21 12:31:00,
2013-09-21 05:46:00,59.5,59.0,29.81,South,181,2.0,4.0,98,0.00,,,0.09,weatherlink.com 1.10,2013-09-21 12:46:00,
2013-09-21 06:01:00,59.3,59.0,29.81,South,180,0.0,2.0,98,0.00,,,0.09,weatherlink.com 1.10,2013-09-21 13:01:00,
2013-09-21 06:16:00,58.9,58.0,29.80,South,181,1.0,3.0,98,0.00,,,0.09,weatherlink.com 1.10,2013-09-21 13:16:00,
2013-09-21 06:31:00,59.1,59.0,29.80,South,180,2.0,2.0,98,0.01,,,0.10,weatherlink.com 1.10,2013-09-21 13:31:00,
2013-09-21 06:46:00,59.2,59.0,29.80,South,180,3.0,5.0,98,0.01,,,0.10,weatherlink.com 1.10,2013-09-21 13:46:00,
2013-09-21 07:01:00,59.4,59.0,29.80,South,180,2.0,4.0,98,0.02,,,0.11,weatherlink.com 1.10,2013-09-21 14:01:00,
2013-09-21 07:16:00,59.6,59.0,29.80,South,180,0.0,6.0,98,0.03,,,0.12,weatherlink.com 1.10,2013-09-21 14:16:00,
2013-09-21 07:31:00,59.8,59.0,29.81,South,180,6.0,8.0,98,0.06,,,0.16,weatherlink.com 1.10,2013-09-21 14:31:00,
2013-09-21 07:46:00,60.0,60.0,29.80,South,180,6.0,9.0,98,0.06,,,0.16,weatherlink.com 1.10,2013-09-21 14:46:00,
2013-09-21 08:01:00,60.1,60.0,29.81,South,179,9.0,15.0,98,0.05,,,0.16,weatherlink.com 1.10,2013-09-21 15:01:00,
2013-09-21 08:16:00,60.2,60.0,29.81,South,181,9.0,16.0,98,0.04,,,0.16,weatherlink.com 1.10,2013-09-21 15:16:00,
2013-09-21 08:31:00,60.2,59.0,29.81,South,180,8.0,18.0,97,0.01,,,0.17,weatherlink.com 1.10,2013-09-21 15:31:00,
2013-09-21 08:46:00,60.2,59.0,29.81,South,180,10.0,15.0,97,0.01,,,0.17,weatherlink.com 1.10,2013-09-21 15:46:00,
2013-09-21 09:01:00,60.7,60.0,29.81,South,180,11.0,16.0,97,0.01,,,0.17,weatherlink.com 1.10,2013-09-21 16:01:00,
2013-09-21 09:16:00,61.1,60.0,29.82,South,181,11.0,17.0,97,0.01,,,0.17,weatherlink.com 1.10,2013-09-21 16:16:00,
2013-09-21 09:32:00,60.8,60.0,29.83,South,181,10.0,14.0,96,0.06,,,0.23,weatherlink.com 1.10,2013-09-21 16:32:00,
2013-09-21 09:46:00,60.8,60.0,29.83,South,180,7.0,13.0,96,0.12,,,0.29,weatherlink.com 1.10,2013-09-21 16:46:00,
2013-09-21 10:01:00,60.7,60.0,29.83,South,180,3.0,10.0,96,0.15,,,0.32,weatherlink.com 1.10,2013-09-21 17:01:00,
2013-09-21 10:16:00,60.9,60.0,29.83,South,181,7.0,10.0,97,0.15,,,0.32,weatherlink.com 1.10,2013-09-21 17:16:00,
2013-09-21 10:31:00,61.0,60.0,29.83,South,180,5.0,14.0,97,0.11,,,0.33,weatherlink.com 1.10,2013-09-21 17:31:00,
2013-09-21 10:46:00,61.0,60.0,29.84,South,180,10.0,15.0,96,0.04,,,0.33,weatherlink.com 1.10,2013-09-21 17:46:00,
2013-09-21 11:01:00,60.7,60.0,29.84,South,180,11.0,12.0,96,0.01,,,0.33,weatherlink.com 1.10,2013-09-21 18:01:00,
2013-09-21 11:16:00,61.4,60.0,29.84,South,180,8.0,12.0,96,0.01,,,0.33,weatherlink.com 1.10,2013-09-21 18:16:00,
2013-09-21 11:31:00,62.5,61.0,29.84,South,180,5.0,9.0,95,0.00,,,0.33,weatherlink.com 1.10,2013-09-21 18:31:00,
2013-09-21 11:47:00,62.8,61.0,29.83,South,180,9.0,11.0,93,0.00,,,0.33,weatherlink.com 1.10,2013-09-21 18:47:00,
2013-09-21 12:02:00,62.9,61.0,29.84,South,180,12.0,13.0,92,0.00,,,0.33,weatherlink.com 1.10,2013-09-21 19:02:00,
2013-09-21 12:17:00,61.6,60.0,29.84,SW,220,9.0,11.0,93,0.00,,,0.33,weatherlink.com 1.10,2013-09-21 19:17:00,
2013-09-21 12:32:00,61.0,59.0,29.84,SW,221,7.0,9.0,94,0.00,,,0.33,weatherlink.com 1.10,2013-09-21 19:32:00,
2013-09-21 12:47:00,62.0,60.0,29.84,SW,222,10.0,11.0,94,0.00,,,0.33,weatherlink.com 1.10,2013-09-21 19:47:00,
2013-09-21 13:02:00,62.7,60.0,29.84,SW,221,12.0,14.0,91,0.00,,,0.33,weatherlink.com 1.10,2013-09-21 20:02:00,
2013-09-21 13:17:00,62.6,60.0,29.84,SW,222,9.0,12.0,90,0.00,,,0.33,weatherlink.com 1.10,2013-09-21 20:17:00,
2013-09-21 13:32:00,62.1,60.0,29.84,SW,217,9.0,11.0,92,0.00,,,0.33,weatherlink.com 1.10,2013-09-21 20:32:00,
2013-09-21 13:47:00,62.6,60.0,29.84,SW,234,10.0,14.0,91,0.00,,,0.33,weatherlink.com 1.10,2013-09-21 20:47:00,
2013-09-21 14:02:00,63.3,60.0,29.83,SW,231,9.0,14.0,89,0.00,,,0.33,weatherlink.com 1.10,2013-09-21 21:02:00,
2013-09-21 14:17:00,63.5,60.0,29.82,SW,226,10.0,12.0,88,0.00,,,0.33,weatherlink.com 1.10,2013-09-21 21:17:00,
2013-09-21 14:32:00,63.5,60.0,29.82,SW,232,11.0,15.0,87,0.00,,,0.33,weatherlink.com 1.10,2013-09-21 21:32:00,
2013-09-21 14:47:00,63.1,60.0,29.82,SW,232,12.0,14.0,88,0.00,,,0.33,weatherlink.com 1.10,2013-09-21 21:47:00,
2013-09-21 15:02:00,62.6,59.0,29.82,SSW,212,10.0,13.0,89,0.00,,,0.33,weatherlink.com 1.10,2013-09-21 22:02:00,
2013-09-21 15:17:00,62.4,60.0,29.82,SW,214,10.0,13.0,90,0.00,,,0.33,weatherlink.com 1.10,2013-09-21 22:17:00,
2013-09-21 15:32:00,62.1,59.0,29.82,SW,228,10.0,14.0,90,0.00,,,0.33,weatherlink.com 1.10,2013-09-21 22:32:00,
2013-09-21 15:47:00,62.7,60.0,29.82,SW,231,9.0,11.0,89,0.00,,,0.33,weatherlink.com 1.10,2013-09-21 22:47:00,
2013-09-21 16:02:00,62.6,59.0,29.83,SW,225,11.0,12.0,88,0.00,,,0.33,weatherlink.com 1.10,2013-09-21 23:02:00,
2013-09-21 16:17:00,63.1,59.0,29.83,WSW,238,9.0,15.0,86,0.00,,,0.33,weatherlink.com 1.10,2013-09-21 23:17:00,
2013-09-21 16:32:00,63.0,59.0,29.83,SW,235,11.0,14.0,86,0.00,,,0.33,weatherlink.com 1.10,2013-09-21 23:32:00,
2013-09-21 16:47:00,63.3,58.0,29.83,SW,229,9.0,14.0,84,0.00,,,0.33,weatherlink.com 1.10,2013-09-21 23:47:00,
2013-09-21 17:02:00,63.0,59.0,29.83,WSW,245,11.0,14.0,86,0.00,,,0.33,weatherlink.com 1.10,2013-09-22 00:02:00,
2013-09-21 17:17:00,62.6,59.0,29.83,SW,217,6.0,13.0,87,0.00,,,0.33,weatherlink.com 1.10,2013-09-22 00:17:00,
2013-09-21 17:32:00,63.1,59.0,29.83,WSW,239,6.0,13.0,85,0.00,,,0.33,weatherlink.com 1.10,2013-09-22 00:32:00,
2013-09-21 17:47:00,63.2,59.0,29.83,WSW,248,11.0,12.0,85,0.00,,,0.33,weatherlink.com 1.10,2013-09-22 00:47:00,
2013-09-21 18:02:00,62.4,58.0,29.83,SW,219,9.0,11.0,86,0.00,,,0.33,weatherlink.com 1.10,2013-09-22 01:02:00,
2013-09-21 18:17:00,61.6,58.0,29.83,SW,222,7.0,9.0,88,0.00,,,0.33,weatherlink.com 1.10,2013-09-22 01:17:00,
2013-09-21 18:32:00,61.6,58.0,29.83,SW,235,6.0,8.0,89,0.00,,,0.33,weatherlink.com 1.10,2013-09-22 01:32:00,
2013-09-21 18:47:00,61.0,58.0,29.83,SW,225,8.0,9.0,89,0.00,,,0.33,weatherlink.com 1.10,2013-09-22 01:47:00,
2013-09-21 19:02:00,59.9,58.0,29.84,SW,218,5.0,9.0,92,0.00,,,0.33,weatherlink.com 1.10,2013-09-22 02:02:00,
2013-09-21 19:32:00,59.0,57.0,29.85,SW,221,9.0,10.0,94,0.00,,,0.33,weatherlink.com 1.10,2013-09-22 02:32:00,
2013-09-21 19:47:00,58.6,57.0,29.85,NW,308,3.0,8.0,93,0.00,,,0.33,weatherlink.com 1.10,2013-09-22 02:47:00,
2013-09-21 20:02:00,57.1,55.0,29.86,NNE,20,0.0,1.0,94,0.00,,,0.33,weatherlink.com 1.10,2013-09-22 03:02:00,
2013-09-21 20:17:00,55.9,54.0,29.87,North,354,0.0,0.0,94,0.00,,,0.33,weatherlink.com 1.10,2013-09-22 03:17:00,
2013-09-21 20:33:00,55.6,54.0,29.88,North,11,0.0,2.0,95,0.00,,,0.33,weatherlink.com 1.10,2013-09-22 03:33:00,
2013-09-21 20:48:00,55.1,54.0,29.88,NNE,23,0.0,3.0,95,0.00,,,0.33,weatherlink.com 1.10,2013-09-22 03:48:00,
2013-09-21 21:03:00,54.6,53.0,29.89,North,11,3.0,4.0,95,0.00,,,0.33,weatherlink.com 1.10,2013-09-22 04:03:00,
2013-09-21 21:18:00,53.6,52.0,29.89,NNE,21,3.0,3.0,95,0.00,,,0.33,weatherlink.com 1.10,2013-09-22 04:18:00,
2013-09-21 21:33:00,53.1,52.0,29.89,North,6,2.0,3.0,96,0.00,,,0.33,weatherlink.com 1.10,2013-09-22 04:33:00,
2013-09-21 21:48:00,52.4,51.0,29.89,North,360,2.0,3.0,96,0.00,,,0.33,weatherlink.com 1.10,2013-09-22 04:48:00,
2013-09-21 22:03:00,52.2,51.0,29.89,North,6,3.0,3.0,97,0.00,,,0.33,weatherlink.com 1.10,2013-09-22 05:03:00,
2013-09-21 22:18:00,52.0,51.0,29.90,NNE,18,3.0,4.0,97,0.00,,,0.33,weatherlink.com 1.10,2013-09-22 05:18:00,
2013-09-21 22:33:00,51.6,51.0,29.90,North,353,1.0,2.0,97,0.00,,,0.33,weatherlink.com 1.10,2013-09-22 05:33:00,
2013-09-21 22:48:00,51.3,51.0,29.90,NNE,15,4.0,4.0,97,0.00,,,0.33,weatherlink.com 1.10,2013-09-22 05:48:00,
2013-09-21 23:03:00,50.9,50.0,29.91,NNW,347,2.0,3.0,97,0.00,,,0.33,weatherlink.com 1.10,2013-09-22 06:03:00,
2013-09-21 23:18:00,51.3,51.0,29.91,NNW,343,2.0,3.0,97,0.00,,,0.33,weatherlink.com 1.10,2013-09-22 06:18:00,
2013-09-21 23:33:00,51.3,51.0,29.91,NE,34,2.0,4.0,98,0.00,,,0.33,weatherlink.com 1.10,2013-09-22 06:33:00,
2013-09-21 23:48:00,51.2,51.0,29.91,North,11,2.0,3.0,98,0.00,,,0.33,weatherlink.com 1.10,2013-09-22 06:48:00,